FW8621 Weather Reports


Display with metric or nautical units.
time (UTC)temp
F
wind
direction
speed
MPH
gust
MPH
rain 1hr
in
rain 24hr
in
rain mn
in
humidity
%
barometer
mb
20260507233059 60 0 0.0 0.0 0.00 0.00 0.00 88 1017.1
20260507231600 60 0 0.0 0.0 0.00 0.00 0.00 88 1017.2
20260507230059 60 0 0.0 0.0 0.00 0.00 0.00 89 1017.2
20260507224601 60 0 0.0 0.0 0.00 0.00 0.00 88 1017.2
20260507223102 60 0 0.0 1.0 0.00 0.00 0.00 89 1017.1
20260507221601 60 0 0.0 1.0 0.00 0.00 0.00 90 1016.9
20260507220059 61 0 0.0 1.0 0.00 0.00 0.00 89 1016.9
20260507214559 61 134 0.0 1.0 0.00 0.00 0.00 89 1016.9
20260507213101 61 134 0.0 1.0 0.00 0.00 0.00 87 1017.0
20260507211601 61 0 0.0 1.0 0.00 0.00 0.00 86 1017.1
20260507210059 62 0 0.0 1.0 0.00 0.00 0.00 85 1017.0
20260507204600 62 0 0.0 0.0 0.00 0.00 0.00 84 1017.2
20260507203100 62 0 0.0 0.0 0.00 0.00 0.00 84 1017.2
20260507201609 63 0 0.0 1.0 0.00 0.00 0.00 83 1017.3
20260507200114 63 0 0.0 0.0 0.00 0.00 0.00 82 1017.1
20260507194604 63 0 0.0 0.0 0.00 0.00 0.00 81 1017.2
20260507193058 64 0 0.0 0.0 0.00 0.00 0.00 81 1017.1
20260507191559 64 0 0.0 0.0 0.00 0.00 0.00 83 1017.1
20260507184602 64 0 0.0 1.0 0.00 0.00 0.00 82 1016.9
20260507183100 65 124 0.0 1.0 0.00 0.00 0.00 81 1016.7
20260507181600 66 140 0.0 1.0 0.00 0.00 0.00 79 1016.6
20260507180059 67 0 0.0 1.0 0.00 0.00 0.00 77 1016.5
20260507174607 68 0 0.0 4.0 0.00 0.00 0.00 75 1016.3
20260507173102 69 139 0.0 4.0 0.00 0.00 0.00 70 1016.2
20260507171605 73 130 0.0 5.0 0.00 0.00 0.00 64 1016.1
20260507170058 76 131 0.0 3.0 0.00 0.00 0.00 58 1016.0
20260507164600 77 51 0.0 4.0 0.00 0.00 0.00 55 1016.0
20260507163124 78 280 0.0 6.0 0.00 0.00 0.00 53 1016.0
20260507161558 77 120 1.0 5.0 0.00 0.00 0.00 56 1016.1
20260507160101 78 0 0.0 5.0 0.00 0.00 0.00 57 1015.9
20260507154601 78 163 0.0 5.0 0.00 0.00 0.00 58 1016.0
20260507153058 78 135 0.0 5.0 0.00 0.00 0.00 58 1015.9
20260507151557 77 141 1.0 5.0 0.00 0.00 0.00 61 1016.1
20260507150100 76 139 2.0 5.0 0.00 0.00 0.00 61 1015.9
20260507144617 75 141 1.0 6.0 0.00 0.00 0.00 61 1016.1
20260507143104 77 0 1.0 5.0 0.00 0.00 0.00 61 1016.1
20260507141626 75 134 0.0 2.0 0.00 0.00 0.00 67 1016.1
20260507140104 73 0 0.0 2.0 0.00 0.00 0.00 66 1016.1
20260507134601 73 0 0.0 1.0 0.00 0.00 0.00 67 1016.0
20260507133100 74 321 0.0 2.0 0.00 0.00 0.00 69 1016.1
20260507131600 75 322 0.0 2.0 0.00 0.00 0.00 66 1016.2
20260507130110 74 353 0.0 2.0 0.00 0.00 0.00 69 1016.2
20260507124612 73 0 0.0 1.0 0.00 0.00 0.00 71 1016.2
20260507123100 74 0 0.0 2.0 0.00 0.00 0.00 70 1016.1
20260507121600 74 27 0.0 1.0 0.00 0.00 0.00 70 1015.9
20260507120058 74 0 0.0 1.0 0.00 0.00 0.00 69 1016.0
20260507114600 73 0 0.0 1.0 0.00 0.00 0.00 68 1016.0
20260507113058 72 0 0.0 2.0 0.00 0.00 0.00 70 1016.2
20260507111557 72 359 0.0 1.0 0.00 0.00 0.00 70 1016.3
20260507110059 73 321 0.0 1.0 0.00 0.00 0.00 67 1016.4
20260507104608 72 0 0.0 1.0 0.00 0.00 0.00 71 1016.4
20260507103113 72 0 0.0 2.0 0.00 0.00 0.00 72 1016.5
20260507101559 70 0 0.0 1.0 0.00 0.00 0.00 74 1016.6
20260507100058 70 0 0.0 1.0 0.00 0.00 0.00 73 1016.6
20260507094601 70 0 0.0 1.0 0.00 0.00 0.00 72 1016.8
20260507093101 71 0 0.0 2.0 0.00 0.00 0.00 66 1016.7
20260507091606 70 0 0.0 1.0 0.00 0.00 0.00 67 1016.6
20260507090100 69 142 0.0 3.0 0.00 0.00 0.00 67 1016.7
20260507084601 70 262 0.0 2.0 0.00 0.00 0.00 66 1016.7
20260507083100 68 183 0.0 1.0 0.00 0.00 0.00 71 1016.5
20260507081559 67 0 0.0 2.0 0.00 0.00 0.00 74 1016.3
20260507080059 66 0 0.0 0.0 0.00 0.00 0.00 77 1016.4
20260507074558 65 0 0.0 0.0 0.00 0.00 0.00 80 1016.3
20260507073103 64 0 0.0 1.0 0.00 0.00 0.00 82 1016.5
20260507071558 64 0 0.0 0.0 0.00 0.00 0.00 84 1016.5
20260507064557 64 0 0.0 0.0 0.00 0.00 0.00 87 1016.2
20260507063058 63 0 0.0 0.0 0.00 0.00 0.00 89 1016.3
20260507061603 62 0 0.0 0.0 0.00 0.00 0.00 90 1016.3
20260507060104 62 0 0.0 0.0 0.00 0.00 0.00 90 1016.3
20260507054609 61 0 0.0 0.0 0.00 0.00 0.00 91 1016.4
20260507053103 61 0 0.0 0.0 0.00 0.00 0.00 91 1016.2
20260507051601 61 0 0.0 0.0 0.00 0.00 0.00 91 1016.0
20260507050106 60 0 0.0 0.0 0.00 0.00 0.00 91 1015.8
20260507044607 60 0 0.0 0.0 0.00 0.00 0.00 91 1015.6
20260507043106 60 0 0.0 0.0 0.00 0.00 0.00 91 1015.5
20260507041608 60 0 0.0 0.0 0.00 0.00 0.00 91 1015.6
20260507040103 61 0 0.0 0.0 0.00 0.00 0.00 91 1015.3
20260507034613 61 0 0.0 0.0 0.00 0.00 0.00 91 1015.3
20260507033107 61 0 0.0 0.0 0.00 0.00 0.00 91 1015.4
20260507031608 61 0 0.0 0.0 0.00 0.00 0.00 91 1015.5
20260507030106 61 0 0.0 0.0 0.00 0.00 0.00 90 1015.2
20260507024611 61 0 0.0 0.0 0.00 0.00 0.00 89 1015.0
20260507023059 62 0 0.0 0.0 0.00 0.00 0.00 90 1015.0
20260507021558 62 0 0.0 0.0 0.00 0.00 0.00 90 1015.0
20260507014603 61 0 0.0 0.0 0.00 0.00 0.00 89 1014.7
20260507013103 61 0 0.0 0.0 0.00 0.00 0.00 89 1014.5
20260507011559 61 0 0.0 0.0 0.00 0.00 0.00 89 1014.2
20260507010100 61 0 0.0 0.0 0.00 0.00 0.00 88 1014.2
20260507004600 61 0 0.0 0.0 0.00 0.00 0.00 88 1014.3
20260507003101 61 0 0.0 0.0 0.00 0.00 0.00 88 1014.3
20260507001558 61 0 0.0 0.0 0.00 0.00 0.00 88 1014.6
20260507000101 61 0 0.0 0.0 0.00 0.00 0.00 88 1014.6
20260506234603 62 0 0.0 0.0 0.00 0.00 0.00 88 1014.8